Location: Bele?tii de Jos
(46.4000°N, 22.8833°E)
Time: 00:55:17
(UTC+00:00)

Daily predictions for brighter satellites

Satellite Brightness Start Highest point End
(mag) Time Altitude Azimuth Time Altitude Azimuth Time Altitude Azimuth
Cosmos 1937 Rocket 4.2 00:04:13 23° SW 00:07:08 46° WNW 00:12:11 10° NNE
Cosmos 1606 Rocket 4.4 00:06:43 10° N 00:11:03 49° ENE 00:14:45 13° SSE
SL-16 R/B 3.9 00:07:27 10° SE 00:13:07 38° ENE 00:18:45 10° N
Cosmos 1844 Rocket 2.9 00:09:58 25° S 00:13:11 63° ESE 00:18:41 10° NNE
CZ-2C R/B 4.0 00:08:38 10° NNE 00:13:41 42° E 00:17:24 16° SSE
Cosmos 1867 3.6 00:14:33 27° SSW 00:17:40 84° SE 00:23:11 10° NE
GEOS 3 Rocket 4.3 00:13:20 10° NNE 00:18:18 47° NW 00:22:15 15° WSW
Cosmos 1727 Rocket 4.0 00:13:29 10° N 00:19:52 86° W 00:24:57 17° S
Cosmos 1536 Rocket 3.6 00:17:51 29° SSW 00:20:01 72° W 00:24:27 10° N
MOZ.5/SAFIR/RUBIN 5/SL-8 3.9 00:20:45 26° SSW 00:23:08 54° W 00:27:40 10° NNW
Cosmos 1726 Rocket 4.3 00:20:37 10° N 00:24:57 51° ENE 00:29:14 10° SSE
H-2A R/B 3.3 00:27:46 10° NNE 00:31:48 87° ESE 00:34:02 25° SSW
CZ-2D R/B 2.3 00:26:35 10° NNE 00:31:55 70° ESE 00:35:45 19° S
COBE Rocket 4.3 00:27:15 10° N 00:32:19 58° WNW 00:35:31 22° SW
Helios 1A Rocket 4.0 00:32:17 22° WSW 00:33:05 23° W 00:36:10 10° NW
Cosmos 1606 4.3 00:32:20 10° NW 00:34:44 17° W 00:35:21 16° W
ADEOS II 2.7 00:30:58 10° NNE 00:36:05 52° E 00:40:29 14° S
ALOS 3.8 00:32:48 10° NE 00:36:51 29° E 00:40:52 10° SSE
CZ-2C R/B 2.6 00:34:14 14° S 00:38:48 78° WSW 00:44:16 10° NNW
Cosmos 1607 3.9 00:34:42 10° NW 00:41:08 75° WSW 00:47:22 10° SSE
Cosmos 1437 Rocket 3.1 00:41:31 25° SW 00:43:24 48° WNW 00:47:04 10° N
ASTEX 1 3.6 00:42:07 10° SSE 00:46:56 69° E 00:51:47 10° N
AQUA 4.5 00:42:38 10° NNE 00:47:14 50° E 00:51:26 12° S
FENGYUN 3A 4.0 00:42:22 10° NNE 00:47:44 64° ESE 00:52:26 13° S
ATLAS 5 CENTAUR R/B 3.1 00:46:06 11° SSE 00:48:07 17° ESE 00:50:28 10° ENE
Cosmos 1603 4.1 00:42:51 10° NW 00:48:19 45° WSW 00:53:01 14° S
Cosmos 2228 4.4 00:46:24 10° NW 00:49:51 24° W 00:51:38 18° WSW
Cosmos 1943 4.3 00:49:03 10° NW 00:53:36 26° WSW 00:56:23 18° SW
Cosmos 1812 2.7 00:53:20 10° N 00:56:55 72° E 01:00:27 10° SSE
Timation 2 Rocket 4.3 00:52:23 15° SSW 00:57:52 68° ESE 01:04:10 10° NNE
Resurs 1-4 Rocket 2.2 00:53:56 10° N 00:59:11 67° WNW 01:03:21 16° SSW
NPP 4.0 00:54:39 10° N 00:59:54 52° WNW 01:04:01 16° SW
USA 238 DEB 4.0 00:59:38 14° WSW 01:05:05 58° NW 01:11:50 10° NE
USA 238 4.0 00:59:40 14° WSW 01:05:07 59° NW 01:11:53 10° NE
Cosmos 724 4.3 01:00:42 10° NW 01:06:26 63° WSW 01:12:12 10° SSE
Cosmos 2058 3.1 01:04:15 12° S 01:08:01 68° E 01:12:05 10° NNE
Cosmos 1892 Rocket 3.6 01:06:24 15° SSW 01:10:00 74° W 01:14:29 10° N
NOSS 2-2 (C) 3.9 01:09:56 14° S 01:12:19 33° ESE 01:15:10 10° NE
BlueWalker 3 2.2 01:09:17 10° WNW 01:13:02 69° NNE 01:16:45 10° ESE
Cosmos 2058 Rocket 3.1 01:08:59 10° N 01:13:26 87° E 01:17:48 10° S
SAR-Lupe-4 4.4 01:11:34 10° NNE 01:15:01 45° E 01:18:26 10° S
Cosmos 1605 Rocket 4.3 01:11:57 10° S 01:18:03 69° E 01:24:08 10° NNE
Envisat 4.2 01:14:57 10° NNE 01:19:43 39° E 01:24:27 10° SSE
NOSS 2-2 (D) 4.3 01:21:35 10° S 01:24:32 28° ESE 01:27:17 10° ENE
Cosmos 1833 Rocket 3.6 01:19:59 10° NNW 01:25:33 54° ENE 01:31:04 10° SE
Iridium 4 Rocket 3.3 01:22:48 10° N 01:27:23 90° WNW 01:32:23 10° S
Cosmos 921 Rocket 4.5 01:26:18 10° NW 01:29:17 19° W 01:31:45 12° SW
Cosmos 1544 2.1 01:27:16 12° S 01:29:36 88° W 01:32:14 10° N
IDEFIX/ARIANE 42P 3.9 01:28:53 10° N 01:33:14 27° WNW 01:37:33 10° WSW
Cosmos 1934 Rocket 4.3 01:27:03 10° SSW 01:33:15 58° WNW 01:39:34 10° N
Cosmos 1626 Rocket 3.9 01:29:33 10° S 01:33:56 67° E 01:38:19 10° NNE
Cosmos 1125 Rocket 3.9 01:30:37 11° SW 01:35:31 55° WNW 01:40:45 10° NNE
Cosmos 2123 Rocket 4.4 01:32:13 10° NNW 01:38:06 47° W 01:43:59 10° SSW
Cosmos-2242 3.3 01:35:41 10° N 01:40:00 71° E 01:44:16 10° SSE
Meteor 1-28 Rocket 3.8 01:36:57 10° SSW 01:40:11 34° W 01:43:28 10° NNW
USA 267 3.7 01:37:33 10° ENE 01:43:57 54° SE 01:50:19 10° SSW
Cosmos 1943 Rocket 4.5 01:41:36 10° SE 01:45:36 20° E 01:49:36 10° NE
YAOGAN 6 4.1 01:44:10 10° NE 01:47:00 28° E 01:49:48 10° SSE
NOSS 2-3 (E) 3.6 01:43:58 10° SSW 01:47:32 58° SE 01:51:27 10° NE
IRAS Rocket 4.3 01:44:32 10° NNE 01:50:03 83° WNW 01:55:33 10° SSW
Cosmos 1782 2.7 01:49:23 10° N 01:53:15 84° W 01:57:04 10° S
CZ-2C R/B 4.3 01:48:46 10° N 01:53:18 29° WNW 01:57:38 10° WSW
NOSS 2-3 (C) 3.4 01:50:21 10° SSW 01:53:55 68° SE 01:57:53 10° NE
Cosmos 1378 3.4 01:52:37 10° N 01:55:51 58° E 01:59:03 10° SSE
UNK 3.9 01:51:37 10° S 01:56:05 52° W 02:00:34 10° NNW
NOAA 11 4.4 01:50:47 10° NNE 01:56:17 74° ESE 02:01:43 10° S
SL-16 R/B 3.0 01:50:44 10° SSW 01:56:36 42° W 02:02:30 10° NNW
Cosmos 1844 Rocket 4.2 01:52:57 10° WSW 01:57:30 25° NW 02:02:05 10° N
Genesis I 3.7 01:54:21 10° NW 01:57:37 32° WSW 02:00:52 10° S
Cosmos 2150 Rocket 4.2 01:54:08 10° SW 01:59:19 62° WNW 02:04:38 10° NNE
SAR-Lupe-1 4.4 01:56:55 10° N 02:00:25 51° WNW 02:03:53 10° SSW
